Вернуться в каталог

COSMOS 511

АктивенВоенныеLEO
NORAD 6124·PAYLOAD·🇷🇺 Russia

Запущен Jul 20, 1972 с Plesetsk Cosmodrome

Loading…

Ближайшие Пролёты (ближайшие 24 часа)

TLE

СвежийSource: Space-Track

Эпоха: Sep 14, 2026, 10:56 UTC

1 06124U 72057H   26257.45613913  .00000007  00000-0  17191-3 0  9997
2 06124  74.0270 137.2104 0031265  59.5822 113.7112 12.36883307445157

Отслеживайте COSMOS 511 в реальном времени с AllMySat

Download on the App Store